星链-32165 (STARLINK-32165)

导读 | 豆包AI

STARLINK-32165是美国SpaceX公司于2024年8月20日发射的星链(Starlink)低轨通信卫星,属于星链星座大规模组网的一员,运行于近地轨道。星链项目旨在为全球提供高速低延迟互联网接入,尤其覆盖偏远区域,该卫星大概率为V2 Mini版本,支持直连手机等功能,具备更强通信带宽,助力星链完成全球服务覆盖,也因星座规模引发太空轨道与天文观测争议。

基本信息
目录编号:
60599
目录名称:
STARLINK-32165
国际标识:
2024-150S
轨道中心:
EARTH
卫星名称:
星链-32165 (STARLINK-32165)
卫星全名:
星链-32165 (STARLINK-32165)
卫星状态:
在轨 (已飞行572 天)
发射日期:
2024-08-20 UTC
国别 :
美国 (US)
星等 :
--
轨道信息
数据来源 国际轨道数据
星历时间: 2026-03-15T05:20:29+0800
17小时前
查看轨道信息
半长轴: 6853.382km
偏心率: 0.000099
轨道倾角: 53.159°
近地点辐角 102.356°
升交点赤经 283.143°
平近点角 257.756°
近地点: 474.566km
远地点: 475.924km
周期: 94.106分钟
每日圈数: 15.3019
详细信息
卫星平台:
Starlink v2.0 mini
运营商:
太空探索技术公司
运营商所在国:
美国
制造商(研发单位):
太空探索技术公司
制造商所在国:
美国
使用方式:
暂无
卫星简介
星链(Starlink)计划是由太空探索技术公司(SpaceX)提出的一个巨型低轨卫星互联网星座项目,计划在2019年至2024年间在太空搭建由约1.2万颗卫星组成的“星链”网络,其中1584颗将部署在地球上空550千米处的近地轨道,并从2020年开始工作。该卫星仍在工作。
2D轨道图
3D轨道图
轨道高度分析图
轨道倾角分析图
轨道综合分析图
查看轨道综合分析图